DELTA 1 DEB, 10718

Orbit data source: Space-Track

DELTA 1 DEB, 10718 is space debris in SSO originally from a launch on Thu, 29 Jul 1976 UTC launched from the Air Force Western Test Range (AFWTR). Debris objects in space refer to the collection of defunct objects orbiting the Earth. Examples of debris include non-operational satellites, rocket bodies, and fragments generated from explosions, collisions, or faulty payload assembly.

Loading next visibility...
DELTA 1 DEB details
Identifier
10718, 1976-077AP
Orbit
SSO
Last TLE update12 hours ago
Origin
Flag of USGSFC (US)
ManufacturerUnknown
MissionSpacecraft
Bus & MotorUnknown
MassUnknown
Launch date (UTC)
1976-07-29 (48 years ago)
Launch vehicleUnknown
Launch site
Air Force Western Test Range (AFWTR)
Object type
Payload
Rocket body
Debris
Shape & HBRUnknown
Radar Cross SectionSmall (<0.1 m²)

Expand to show TLE details & history

TLE from 12 hours ago
0 DELTA 1 DEB
1 10718U 76077AP  24361.07173729  .00000094  00000-0  98802-3 0  9999
2 10718 101.6762  37.5738 0051619  15.8205  12.1200 12.42782822193926
Epoch: 2024-12-26T01:43Z
Definitive object data (Epoch: 2024-12-26T01:43:18.101Z)
Latitude27.4744°
Longitude-89.44655°
Altitude1,458.164 km
Speed7.154 km/s
True Right ascension02h 05m 44s
True Declination27° 20' 47"
Sunlit
Object was in daylight at TLE epoch
Visualization TLE readout
Latitude66.04354°
Longitude124.74574°
Altitude1,510.32 km
Speed7.114 km/s
Apparent Right ascension22h 23m 22s
Apparent Declination40° 11' 13"
Sunlit
Object is in daylight
Visualization observer readout
Local Sidereal Time13:07:08
Azimuth30.056° NE
Elevation-1.634°
Doppler factor1
Orbital elements
Apogee altitude1,533.007 km
Perigee altitude1,451.754 km
Semi-major axis7,870.517 km
Eccentricity0.0051619
Inclination101.6762°
RAAN37.5738°
Arg. of periapsis15.8205°
True anomaly12.24498°
Mean anomaly12.12°
Eccentric anomaly12.18241°
Mean motion3.10841 °/min
BSTAR0.00098802
Orbital period115.81 mins
Loading maneuver chart data...
Loading historical data...
Loading historical data...
Loading historical data...
Loading historical data...
Loading historical data...
Loading historical data...
Loading historical data...

DELTA 1 DEB Visibility forecast

Observer location: undefined°, undefined

Span
Click to sort rows by Start time (UTC) header in descending order
Start Az.
Max El. time (UTC)
Max El. Az.
Max El.
End time (UTC)
End Az.
10 mins2024-12-26 13:50:25.063Z52.031° ENE2024-12-26 13:55:25.063Z88.83° E17.189°2024-12-26 14:00:25.063Z126.824° SE
15 mins2024-12-26 15:43:25.063Z17.354° NNE2024-12-26 15:50:25.063Z204.835° SW44.995°2024-12-26 15:58:25.063Z199.805° SSW
10 mins2024-12-26 17:38:25.063Z345.104° N2024-12-26 17:43:25.063Z303.773° NW20.332°2024-12-26 17:48:25.063Z265.801° W
12 mins2024-12-27 00:55:25.063Z104.463° ESE2024-12-27 01:00:25.063Z61.126° ENE25.408°2024-12-27 01:07:25.063Z2.604° NNE
14 mins2024-12-27 02:47:25.063Z175.435° S2024-12-27 02:54:25.063Z275.059° WNW42.473°2024-12-27 03:01:25.063Z336.622° NNW
|